Meteo Giornale » Osservazioni meteo Olanda » Euro Platform
ore: 14:55 - Osservazioni Meteo Euro Platform
Lat. 52° 0' N Lon. 3° 17' E Alt. 50 metri s.l.m.
18 °C
Sereno
Temp. 24 Ore
18 °C
21 °C
Ovest/Sud-Ovest
24 Km/h
Dew point 12 °C
Umidità 67 %
Visibilità 10 Km
Il sole sorge alle ore 06:58
Il sole tramonta alle ore 20:34
| Data e Ora | Cielo e Fenomeni | T °C | DP °C | Um. % | Pres. hPa | Vis. km | Vento km/h | |
|---|---|---|---|---|---|---|---|---|
| Oggi h: 14:55 | Sereno | 18 | 12 | 67 | 1020 | 10 | O/SO 24 | |
| Oggi h: 14:25 | Sereno | 19 | 11 | 59 | 1021 | 10 | O 24 | |
| Oggi h: 13:55 | Sereno | 18 | 12 | 67 | 1021 | 10 | O/SO 24 | |
| Oggi h: 13:25 | Sereno | 19 | 11 | 59 | 1021 | 10 | O 22.2 | |
| Oggi h: 12:55 | Sereno | 18 | 11 | 63 | 1021 | 10 | O 24 | |
| Oggi h: 12:25 | Sereno | 18 | 11 | 63 | 1021 | 10 | O 24 | |
| Oggi h: 11:55 | Sereno | 18 | 12 | 67 | 1021 | 10 | O 24 | |
| Oggi h: 11:25 | Sereno | 18 | 12 | 67 | 1020 | 10 | O 24 | |
| Oggi h: 10:55 | Sereno | 18 | 11 | 63 | 1020 | 10 | O 24 | |
| Oggi h: 10:25 | Sereno | 18 | 11 | 63 | 1020 | 10 | O 25.9 | |
| Oggi h: 09:55 | Sereno | 18 | 11 | 63 | 1020 | 10 | O 27.8 | |
| Oggi h: 09:25 | Sereno | 18 | 10 | 59 | 1019 | 10 | O 27.8 | |
| Oggi h: 08:55 | Sereno | 18 | 11 | 63 | 1019 | 10 | O 25.9 | |
| Oggi h: 08:25 | Sereno | 18 | 11 | 63 | 1019 | 10 | O 27.8 | |
| Oggi h: 07:55 | Sereno | 18 | 12 | 67 | 1018 | 10 | O 29.6 | |
| Oggi h: 07:25 | Sereno | 18 | 12 | 67 | 1018 | 10 | O/NO 31.5 | |
| Oggi h: 06:55 | Sereno | 18 | 12 | 67 | 1018 | 10 | O 29.6 | |
| Oggi h: 06:25 | Sereno | 18 | 12 | 67 | 1018 | 10 | O 27.8 | |
| Oggi h: 05:55 | Sereno | 18 | 12 | 67 | 1018 | 10 | O 29.6 | |
| Oggi h: 05:25 | Sereno | 18 | 12 | 67 | 1018 | 10 | O 29.6 | |
| Oggi h: 04:55 | Sereno | 18 | 12 | 67 | 1017 | 10 | O 29.6 | |
| Oggi h: 04:25 | Sereno | 19 | 13 | 68 | 1017 | 10 | O 25.9 | |
| Oggi h: 03:55 | Sereno | 19 | 13 | 68 | 1017 | 10 | O/NO 29.6 | |
| Oggi h: 03:25 | Sereno | 19 | 13 | 68 | 1017 | 10 | O/NO 31.5 | |
| Oggi h: 02:55 | Sereno | 19 | 13 | 68 | 1017 | 10 | O/NO 35.2 | |
| Oggi h: 02:25 | Sereno | 19 | 14 | 72 | 1017 | 10 | O/NO 35.2 | |
| Oggi h: 01:55 | Sereno | 19 | 14 | 72 | 1017 | 10 | O/NO 35.2 | |
| Oggi h: 01:25 | Sereno | 20 | 16 | 77 | 1017 | 10 | O 31.5 | |
| Oggi h: 00:55 | Sereno | 20 | 16 | 77 | 1017 | 10 | O 24 | |
| Oggi h: 00:25 | Sereno | 20 | 16 | 77 | 1016 | 10 | O 24 | |
| Ieri h: 23:55 | Sereno | 20 | 16 | 77 | 1016 | 10 | O/NO 22.2 | |
| Ieri h: 23:25 | Sereno | 20 | 15 | 72 | 1016 | 10 | O/NO 22.2 | |
| Ieri h: 22:55 | Sereno | 20 | 16 | 77 | 1016 | 10 | NO 22.2 | |
| Ieri h: 22:25 | Sereno | 20 | 16 | 77 | 1015 | 10 | O/NO 33.3 | |
| Ieri h: 21:55 | Sereno | 21 | 15 | 68 | 1015 | 10 | O/SO 35.2 | |
| Ieri h: 21:25 | Sereno | 21 | 15 | 68 | 1015 | 10 | O/SO 31.5 | |
| Ieri h: 20:55 | Sereno | 21 | 15 | 68 | 1015 | 10 | O/SO 37 | |
| Ieri h: 20:25 | Sereno | 21 | 16 | 73 | 1014 | 10 | O/SO 37 | |
| Ieri h: 19:55 | Sereno | 21 | 14 | 64 | 1014 | 10 | O/SO 38.8 | |
| Ieri h: 19:25 | Sereno | 21 | 14 | 64 | 1014 | 10 | SO 40.7 | |
| Ieri h: 18:55 | Sereno | 20 | 14 | 68 | 1013 | 10 | SO 40.7 | |
| Ieri h: 18:25 | Sereno | 20 | 14 | 68 | 1013 | 10 | O/SO 40.7 | |
| Ieri h: 17:55 | Sereno | 20 | 13 | 64 | 1013 | 10 | O/SO 38.8 | |
| Ieri h: 17:25 | Sereno | 20 | 13 | 64 | 1013 | 10 | O/SO 40.7 | |
| Ieri h: 16:55 | Sereno | 20 | 13 | 64 | 1012 | 10 | O/SO 42.6 | |
| Ieri h: 16:25 | Sereno | 19 | 13 | 68 | 1012 | 10 | O 46.3 | |
| Ieri h: 15:55 | Sereno | 19 | 13 | 68 | 1012 | 10 | O/SO 42.6 | |



